Keauhou, HI

10:56 PM HST on August 29, 2014 (GMT -1000)
Kona International At Keahole | Change Station
CLOSE
Current Station
Airport
Location: Keahole Point,
Elevation: 43 ft
Nearby Weather Stations
Active Advisory: High Surf Advisory

Elev 43 ft 19.74 °N, 156.05 °W | Updated 3 minutes ago

Clear
Clear
79 °F
Feels Like 79 °F
N
5
Wind Variable Wind from East

Today
High -- | Low -- °F
--% Chance of Precip.
Yesterday
High -- | Low -- °F
Precip. -- in
6:08 AM 6:41 PM
Waxing Crescent, 20% visible
Pressure 29.92 in
Visibility 10.0 miles
Clouds Clear
Dew Point 69 °F
Humidity 72%
Rainfall 0.00 in
Snow Depth Not available.
UV 0 out of 12
Pollen Not available.
Air Quality Not available.
Flu Activity Not available.
METAR PHKO 300853Z AUTO 09004KT 10SM CLR 26/21 A2991 RMK AO2 SLP130 T02610206 51008 TSNO

More Conditions Fewer Conditions

Pressure 29.92 in
Visibility 10.0 miles
Clouds Clear
Dew Point 69 °F
Humidity 72%
Rainfall 0.00 in
Snow Depth Not available.
UV 0 out of 12
Pollen Not available.
Air Quality Not available.
Flu Activity Not available.
METAR PHKO 300853Z AUTO 09004KT 10SM CLR 26/21 A2991 RMK AO2 SLP130 T02610206 51008 TSNO

More Conditions Fewer Conditions

10-Day Weather Forecast

Almanac

Astronomy

Aug. 29, 2014 Rise Set
Actual Time 6:08 AM HST 6:41 PM HST
Civil Twilight 5:45 AM HST 7:03 PM HST
Nautical Twilight 5:19 AM HST 7:29 PM HST
Astronomical Twilight 4:52 AM HST 7:56 PM HST
Moon 9:31 AM HST (8/29) 9:25 PM HST (8/29)
Length of Visible Light 13h 18m
Length of Day
12h 33m
Tomorrow will be 1m 3s shorter.
Waxing Crescent, 20% of the Moon is Illuminated
Aug 30
Waxing Crescent
Sep 2
First Quarter
Sep 8
Full
Sep 15
Last Quarter
Sep 24
New

Yesterday's Extremes

State Highs State Lows

Community

WunderPhotos

Upload Photos

1,748,474 photos uploaded!

Nearby

Snow Depth

Station Depth Elevation
No new snow has been reported.

Earthquake Activity

City Distance Mag. Time & Date
No recent earthquake activity has been reported nearby.
Minimum magnitude displayed is 2.5.

Coastal Water Temperatures

Place Temperature
No Stations Reporting

Nearby Weather Stations